Weather in Gorodok

Belarus     55°27′44″N   29°58′58″E
temp.,
°C
wind,
m/s
gust,
m/s
humid.,
%
clouds,
%
prec.,
mm/h
press.,
hPa
HPBL,
m
15 may, sat
sat1500:00+11e3898100 1.1 1006188
03:00+10ese249928 1.5 100579
06:00+10se239816 0.1 100585
09:00+15s348528 0.1 1005458
12:00+17sw447352 0.8 10051038
15:00+18sw4570100 2.4 10041037
18:00+17wsw258018 3.1 1005575
21:00+13wsw2289100 4.8 100518
16 may, sun
sun1600:00+12wsw239698 0.1 100644
03:00+10w24977 0.3 100868
06:00+10w2396100 0.0 100976
09:00+14wsw238346 0.0 1010326
12:00+19sw33585 0.0 10111193
15:00+19ssw456088 0.4 10111691
18:00+18s247538 0.8 1010627
21:00+13sse228953 0.9 101122
17 may, mon
mon1700:00+12se3595100 0.0 101188
03:00+11ese369615 0.0 1011115
06:00+12ese3896100 0.0 1010185
09:00+16se51081100 0.0 1010465
12:00+20se5764100 0.0 10081022
15:00+15se1290100 2.4 100855
18:00+14nnw3797100 10.9 1005304
21:00+13n4897100 13.2 1004325
18 may, tue
tue1800:00+12nne3699100 0.9 1002199
03:00+13ne3799100 3.4 1000270
06:00+14e3998100 1.5 997455
09:00+15ese31098100 3.2 996655
12:00+13sw61097100 2.4 996659
15:00+14wsw5108714 3.1 1002867
18:00+15wsw478325 0.6 1004842
21:00+11sw119376 0.6 100510
19 may, wed
wed1900:00+11s119399 0.0 100611
03:00+10sw1196100 0.0 100619
06:00+10wnw2598100 0.9 1006205
09:00+12wnw3490100 0.9 1006477
12:00+13w4478100 0.1 1006840
15:00+14w6775100 0.4 1006986
18:00+14wnw5975100 0.1 10061109
21:00+11w249027 0.2 100768